Oldest pages

Jump to navigation Jump to search

Showing below up to 500 results in range #51 to #550.

View (previous 500 | next 500) (20 | 50 | 100 | 250 | 500)

  1. Centro intellettuale‏‎ (21:20, 13 March 2015)
  2. Centro emotivo‏‎ (21:21, 13 March 2015)
  3. Centro motorio‏‎ (21:22, 13 March 2015)
  4. Centro sessuale‏‎ (21:23, 13 March 2015)
  5. Centro vegetativo‏‎ (21:25, 13 March 2015)
  6. Clima‏‎ (21:27, 13 March 2015)
  7. Clima, caratteristiche del‏‎ (21:28, 13 March 2015)
  8. Clima, origine del‏‎ (21:30, 13 March 2015)
  9. Comportamento‏‎ (21:31, 13 March 2015)
  10. Comportamento, errori del‏‎ (21:32, 13 March 2015)
  11. Comportamento, fattori che intervengono nel‏‎ (21:34, 13 March 2015)
  12. Comportamento, funzione del‏‎ (21:36, 13 March 2015)
  13. Comportamento, limiti del‏‎ (21:37, 13 March 2015)
  14. Comportamento, valutazione del‏‎ (21:37, 13 March 2015)
  15. Comunicazione tra persone‏‎ (21:39, 13 March 2015)
  16. Contenuti mentali‏‎ (21:39, 13 March 2015)
  17. Compresenza, campo di‏‎ (21:42, 13 March 2015)
  18. Coscienza‏‎ (21:43, 13 March 2015)
  19. Coscienza, disfunzioni della‏‎ (21:43, 13 March 2015)
  20. Coscienza, livelli di. Rapporti‏‎ (21:46, 13 March 2015)
  21. Coscienza, meccanismi della‏‎ (21:49, 13 March 2015)
  22. Coscienza, vie associative e astrattive della‏‎ (21:51, 13 March 2015)
  23. Distensione, pratiche di‏‎ (22:35, 13 March 2015)
  24. Dolore‏‎ (22:36, 13 March 2015)
  25. Dolore, vie del‏‎ (22:37, 13 March 2015)
  26. Dolore, tempo del‏‎ (22:38, 13 March 2015)
  27. Forma‏‎ (22:40, 13 March 2015)
  28. Ginnastica psicofisica‏‎ (22:40, 13 March 2015)
  29. Darwinismo sociale‏‎ (20:50, 20 March 2015)
  30. Demagogia‏‎ (20:52, 20 March 2015)
  31. Democrazia‏‎ (20:53, 20 March 2015)
  32. Democrazia cristiana‏‎ (20:55, 20 March 2015)
  33. Democrazia rivoluzionaria‏‎ (20:56, 20 March 2015)
  34. Destrutturazione‏‎ (20:57, 20 March 2015)
  35. Dichiarazione per la Buona Conoscenza‏‎ (16:48, 22 March 2015)
  36. Dipendenza‏‎ (20:29, 29 March 2015)
  37. Diplomazia‏‎ (20:30, 29 March 2015)
  38. Disoccupazione‏‎ (20:35, 29 March 2015)
  39. Dispotismo‏‎ (20:41, 29 March 2015)
  40. Disumanizzazione‏‎ (21:06, 29 March 2015)
  41. Dittatura‏‎ (20:24, 30 March 2015)
  42. Effetto dimostrazione‏‎ (20:28, 30 March 2015)
  43. Elezione‏‎ (20:29, 30 March 2015)
  44. Élite‏‎ (20:30, 30 March 2015)
  45. Esercito‏‎ (20:31, 30 March 2015)
  46. Evoluzione‏‎ (20:34, 30 March 2015)
  47. Famiglia‏‎ (20:34, 30 March 2015)
  48. Fede‏‎ (20:35, 30 March 2015)
  49. Filantropia‏‎ (20:37, 30 March 2015)
  50. Fronte d'azione‏‎ (20:40, 30 March 2015)
  51. Generazioni‏‎ (20:41, 30 March 2015)
  52. Gerarchia‏‎ (20:41, 30 March 2015)
  53. Gestione‏‎ (20:41, 30 March 2015)
  54. Gesuitismo‏‎ (20:42, 30 March 2015)
  55. Gioco‏‎ (20:52, 30 March 2015)
  56. Fraternità‏‎ (20:54, 30 March 2015)
  57. Feudalesimo‏‎ (20:55, 30 March 2015)
  58. Femminismo‏‎ (20:56, 30 March 2015)
  59. Dogmatismo‏‎ (22:01, 30 March 2015)
  60. Ecologia‏‎ (22:02, 30 March 2015)
  61. Ecologismo‏‎ (22:02, 30 March 2015)
  62. Educazione‏‎ (22:04, 30 March 2015)
  63. Emancipazione‏‎ (22:05, 30 March 2015)
  64. Gruppo sociale‏‎ (22:06, 30 March 2015)
  65. Guerra‏‎ (22:07, 30 March 2015)
  66. Guerra civile‏‎ (22:07, 30 March 2015)
  67. Guerra fredda‏‎ (22:07, 30 March 2015)
  68. MappaVisitatori‏‎ (21:27, 31 March 2015)
  69. Idealismo‏‎ (15:28, 4 April 2015)
  70. Illuminismo‏‎ (05:42, 5 April 2015)
  71. Immigrazione‏‎ (05:57, 5 April 2015)
  72. Imperialismo‏‎ (05:58, 5 April 2015)
  73. Impresa-società‏‎ (13:53, 5 April 2015)
  74. Introduzione all'Economia del Nuovo Umanesimo‏‎ (14:00, 5 April 2015)
  75. Bene sociale‏‎ (14:10, 5 April 2015)
  76. Capitalismo‏‎ (14:12, 5 April 2015)
  77. Collettivismo‏‎ (14:13, 5 April 2015)
  78. Comunismo‏‎ (14:14, 5 April 2015)
  79. Consumismo‏‎ (14:15, 5 April 2015)
  80. Cooperazione‏‎ (14:17, 5 April 2015)
  81. Economia‏‎ (14:29, 5 April 2015)
  82. Amore‏‎ (20:29, 3 June 2015)
  83. Futuro Verde‏‎ (11:00, 8 July 2015)
  84. Individualismo‏‎ (17:19, 9 July 2015)
  85. Iniziativa‏‎ (17:22, 9 July 2015)
  86. Innovazione‏‎ (17:23, 9 July 2015)
  87. Internazionale Umanista‏‎ (17:37, 9 July 2015)
  88. Leader‏‎ (18:39, 9 July 2015)
  89. Legge‏‎ (18:42, 9 July 2015)
  90. Legislazione‏‎ (18:43, 9 July 2015)
  91. Legittimismo‏‎ (18:45, 9 July 2015)
  92. Legittimità‏‎ (18:46, 9 July 2015)
  93. Liberalismo‏‎ (18:47, 9 July 2015)
  94. Libertà‏‎ (19:04, 9 July 2015)
  95. Documento del Nuovo Umanesimo‏‎ (19:23, 9 July 2015)
  96. Machiavellismo‏‎ (21:20, 14 July 2015)
  97. Manipolazione‏‎ (21:21, 14 July 2015)
  98. Marginalità‏‎ (21:23, 14 July 2015)
  99. Marxismo-leninismo‏‎ (21:25, 14 July 2015)
  100. Materialismo‏‎ (21:30, 14 July 2015)
  101. Metalinguaggio‏‎ (21:32, 14 July 2015)
  102. Metalinguistica‏‎ (21:33, 14 July 2015)
  103. Metodo‏‎ (21:35, 14 July 2015)
  104. Mobilità sociale‏‎ (21:46, 14 July 2015)
  105. Modernizzazione‏‎ (21:04, 20 July 2015)
  106. Momento storico‏‎ (21:07, 20 July 2015)
  107. Mondializzazione‏‎ (21:36, 20 July 2015)
  108. Movimento antibellico‏‎ (21:40, 20 July 2015)
  109. Nazionalismo‏‎ (20:04, 21 July 2015)
  110. Nazionalsocialismo‏‎ (20:05, 21 July 2015)
  111. Nazione‏‎ (20:09, 21 July 2015)
  112. Neocolonialismo‏‎ (20:11, 21 July 2015)
  113. Neoliberalismo‏‎ (20:13, 21 July 2015)
  114. Nichilismo‏‎ (20:15, 21 July 2015)
  115. Nord-sud‏‎ (20:27, 21 July 2015)
  116. Organizzazione delle Nazioni Unite‏‎ (20:35, 21 July 2015)
  117. Nuova destra‏‎ (20:36, 21 July 2015)
  118. Nuova sinistra‏‎ (20:38, 21 July 2015)
  119. Nuovi poveri‏‎ (20:40, 21 July 2015)
  120. Nuovo Umanesimo‏‎ (20:45, 21 July 2015)
  121. Sfruttamento‏‎ (20:50, 21 July 2015)
  122. Opinione pubblica‏‎ (20:53, 21 July 2015)
  123. Opportunismo‏‎ (20:55, 21 July 2015)
  124. Opposizione‏‎ (20:57, 21 July 2015)
  125. Oppressione‏‎ (20:58, 21 July 2015)
  126. Opzione‏‎ (21:03, 21 July 2015)
  127. Organizzazioni non governative‏‎ (21:06, 21 July 2015)
  128. Organizzazioni sociali di base‏‎ (21:07, 21 July 2015)
  129. Ortodossia‏‎ (21:09, 21 July 2015)
  130. Ozio‏‎ (21:10, 21 July 2015)
  131. Paesaggio di formazione‏‎ (19:55, 25 July 2015)
  132. Paesaggio esterno‏‎ (19:56, 25 July 2015)
  133. Paesaggio interno‏‎ (19:57, 25 July 2015)
  134. Paesaggio umano‏‎ (19:58, 25 July 2015)
  135. Paesi in via di sviluppo‏‎ (19:59, 25 July 2015)
  136. Paesi sviluppati‏‎ (20:00, 25 July 2015)
  137. Partito politico‏‎ (20:03, 25 July 2015)
  138. Paternalismo‏‎ (20:03, 25 July 2015)
  139. Patriarcato‏‎ (22:30, 26 July 2015)
  140. Patriottismo‏‎ (22:31, 26 July 2015)
  141. Personalismo‏‎ (22:35, 26 July 2015)
  142. Popolo‏‎ (22:37, 26 July 2015)
  143. Populismo‏‎ (22:40, 26 July 2015)
  144. Potere‏‎ (22:41, 26 July 2015)
  145. Problema dell'alimentazione‏‎ (22:48, 26 July 2015)
  146. Problema globale‏‎ (22:49, 26 July 2015)
  147. Problema nazionale‏‎ (22:50, 26 July 2015)
  148. Proprietà‏‎ (22:52, 26 July 2015)
  149. Qualità della vita‏‎ (20:13, 27 July 2015)
  150. Questione femminile‏‎ (20:14, 27 July 2015)
  151. Radicalismo‏‎ (20:16, 27 July 2015)
  152. Reciprocità‏‎ (20:17, 27 July 2015)
  153. Regime‏‎ (20:18, 27 July 2015)
  154. Religione‏‎ (20:21, 27 July 2015)
  155. Religiosità‏‎ (20:23, 27 July 2015)
  156. Repressione‏‎ (20:23, 27 July 2015)
  157. Revanscismo‏‎ (20:25, 27 July 2015)
  158. Riformismo‏‎ (20:26, 27 July 2015)
  159. Riformismo sociale‏‎ (20:26, 27 July 2015)
  160. Rinascimento‏‎ (20:28, 27 July 2015)
  161. Riso‏‎ (20:29, 27 July 2015)
  162. Rivoluzione‏‎ (20:30, 27 July 2015)
  163. Ruolo sociale‏‎ (20:31, 27 July 2015)
  164. Centri‏‎ (14:55, 30 July 2015)
  165. Centri di risposta‏‎ (15:00, 30 July 2015)
  166. Scelta‏‎ (12:31, 1 August 2015)
  167. Schiavitù‏‎ (12:45, 1 August 2015)
  168. Scienza‏‎ (12:47, 1 August 2015)
  169. Sciovinismo‏‎ (12:49, 1 August 2015)
  170. Separatismo‏‎ (12:51, 1 August 2015)
  171. Autodeterminazione‏‎ (12:54, 1 August 2015)
  172. Sicurezza‏‎ (13:01, 1 August 2015)
  173. Sicurezza (o previdenza) sociale‏‎ (13:03, 1 August 2015)
  174. Siloismo‏‎ (13:04, 1 August 2015)
  175. Sindacalismo‏‎ (13:06, 1 August 2015)
  176. Sistema elettorale‏‎ (13:08, 1 August 2015)
  177. Socialdemocrazia‏‎ (13:10, 1 August 2015)
  178. Socialismo‏‎ (13:12, 1 August 2015)
  179. Società‏‎ (13:13, 1 August 2015)
  180. Società postindustriale‏‎ (13:14, 1 August 2015)
  181. Solidarietà‏‎ (13:17, 1 August 2015)
  182. Spazio‏‎ (13:18, 1 August 2015)
  183. Stato‏‎ (13:19, 1 August 2015)
  184. Stile di vita‏‎ (13:21, 1 August 2015)
  185. Diritti umani‏‎ (13:35, 1 August 2015)
  186. Lettere ai Miei Amici‏‎ (13:38, 1 August 2015)
  187. Storiologia‏‎ (13:41, 1 August 2015)
  188. Stratificazione sociale‏‎ (13:42, 1 August 2015)
  189. Struttura‏‎ (13:46, 1 August 2015)
  190. Strutturalismo‏‎ (13:47, 1 August 2015)
  191. Superamento del vecchio da parte del nuovo‏‎ (13:48, 1 August 2015)
  192. La Comunità per lo Sviluppo Umano‏‎ (15:07, 1 August 2015)
  193. Convergenza delle Culture‏‎ (15:45, 1 August 2015)
  194. Punta de Vacas‏‎ (15:11, 2 August 2015)
  195. Parco di Studio e Riflessione di Punta de Vacas‏‎ (15:21, 2 August 2015)
  196. Metodo Strutturale Dinamico‏‎ (15:37, 2 August 2015)
  197. Psicologia dell’immagine‏‎ (20:34, 2 August 2015)
  198. Tecnica‏‎ (22:14, 2 August 2015)
  199. Il tema più importante‏‎ (22:15, 2 August 2015)
  200. Tempo‏‎ (22:16, 2 August 2015)
  201. Tesi del Partito Umanista‏‎ (22:20, 2 August 2015)
  202. Tirannia‏‎ (22:21, 2 August 2015)
  203. Tolleranza‏‎ (22:22, 2 August 2015)
  204. Tolstojsmo‏‎ (22:24, 2 August 2015)
  205. Totalitarismo‏‎ (22:26, 2 August 2015)
  206. Allucinazione‏‎ (16:35, 3 August 2015)
  207. Apparati‏‎ (16:38, 3 August 2015)
  208. Appercezione‏‎ (16:38, 3 August 2015)
  209. Apprendimento‏‎ (16:39, 3 August 2015)
  210. Associazione‏‎ (16:40, 3 August 2015)
  211. Astrazione‏‎ (16:41, 3 August 2015)
  212. Attenzione‏‎ (16:42, 3 August 2015)
  213. Attenzione direzionata‏‎ (16:44, 3 August 2015)
  214. Attenzione tesa‏‎ (16:45, 3 August 2015)
  215. Autoconoscenza, pratiche di‏‎ (16:46, 3 August 2015)
  216. Autotrasferenza‏‎ (16:47, 3 August 2015)
  217. Ubicazione personale‏‎ (19:57, 16 August 2015)
  218. Uguaglianza‏‎ (20:00, 16 August 2015)
  219. Umanesimo‏‎ (20:03, 16 August 2015)
  220. Umanesimo antropocentrico‏‎ (20:06, 16 August 2015)
  221. Umanesimo cristiano‏‎ (20:08, 16 August 2015)
  222. Il Rapporto Tokarev‏‎ (20:10, 16 August 2015)
  223. Umanesimo empirico‏‎ (20:11, 16 August 2015)
  224. Umanesimo esistenzialista‏‎ (20:13, 16 August 2015)
  225. Umanesimo filosofico‏‎ (20:20, 16 August 2015)
  226. Umanesimo marxista‏‎ (20:21, 16 August 2015)
  227. Umanesimo teocentrico‏‎ (20:26, 16 August 2015)
  228. Umanista‏‎ (20:30, 16 August 2015)
  229. Umanista I, Manifesto‏‎ (20:32, 16 August 2015)
  230. Umanista II, Manifesto‏‎ (20:34, 16 August 2015)
  231. Umanista, parole affini‏‎ (20:35, 16 August 2015)
  232. Umanità‏‎ (20:38, 16 August 2015)
  233. Umanitarismo‏‎ (20:39, 16 August 2015)
  234. Utopia‏‎ (20:40, 16 August 2015)
  235. Atteggiamento umanista‏‎ (21:26, 16 August 2015)
  236. Intenzione‏‎ (21:28, 16 August 2015)
  237. Immaginazione‏‎ (13:59, 17 August 2015)
  238. Immagine‏‎ (14:00, 17 August 2015)
  239. Impulsi‏‎ (14:04, 17 August 2015)
  240. Immagine, funzione della‏‎ (14:07, 17 August 2015)
  241. Insogni‏‎ (14:12, 17 August 2015)
  242. Insogno, nucleo di‏‎ (14:12, 17 August 2015)
  243. Intenzionalità‏‎ (14:13, 17 August 2015)
  244. Interesse‏‎ (14:16, 17 August 2015)
  245. Istinti di conservazione della specie‏‎ (14:18, 17 August 2015)
  246. Luce, sensazione della‏‎ (14:18, 17 August 2015)
  247. Memoria‏‎ (14:19, 17 August 2015)
  248. Memoria, errori della‏‎ (14:19, 17 August 2015)
  249. Memoria, frange di‏‎ (14:22, 17 August 2015)
  250. Memoria, funzione della‏‎ (14:22, 17 August 2015)
  251. Memoria, impressione nella‏‎ (14:23, 17 August 2015)
  252. Memoria, leggi d'impressione nella‏‎ (14:23, 17 August 2015)
  253. Mondo, attività nel‏‎ (14:24, 17 August 2015)
  254. Mondo o Ambiente esterno‏‎ (14:24, 17 August 2015)
  255. Mondo o Ambiente interno‏‎ (14:25, 17 August 2015)
  256. Morte‏‎ (14:25, 17 August 2015)
  257. Nucleo d'insogno‏‎ (14:26, 17 August 2015)
  258. Oblio‏‎ (14:26, 17 August 2015)
  259. Percezione‏‎ (14:35, 17 August 2015)
  260. Percezione, leggi della‏‎ (14:36, 17 August 2015)
  261. Piacere‏‎ (14:37, 17 August 2015)
  262. Piacere, tempo del‏‎ (14:38, 17 August 2015)
  263. Possesso‏‎ (14:38, 17 August 2015)
  264. Pratica operativa, conseguenze immediate della‏‎ (14:39, 17 August 2015)
  265. Pratica operativa, tecniche di‏‎ (14:40, 17 August 2015)
  266. Pratica operativa, teoria generale della‏‎ (14:40, 17 August 2015)
  267. Presenza e compresenza, campi di‏‎ (14:41, 17 August 2015)
  268. Psichismo‏‎ (14:41, 17 August 2015)
  269. Psichismo, interregolazione dello‏‎ (14:42, 17 August 2015)
  270. Psichismo, rumore nel sistema di autoregolazione dello‏‎ (14:43, 17 August 2015)
  271. Rappresentazione‏‎ (14:43, 17 August 2015)
  272. Relax‏‎ (14:43, 17 August 2015)
  273. Relax, passi del‏‎ (14:44, 17 August 2015)
  274. Reminescenza‏‎ (14:44, 17 August 2015)
  275. Reversibilità‏‎ (14:44, 17 August 2015)
  276. Riconoscimento‏‎ (14:45, 17 August 2015)
  277. Ricordo‏‎ (14:45, 17 August 2015)
  278. Rievocazione‏‎ (14:45, 17 August 2015)
  279. Riflesso‏‎ (14:46, 17 August 2015)
  280. Rievocazione, gradi della‏‎ (14:46, 17 August 2015)
  281. Risposta‏‎ (14:47, 17 August 2015)
  282. RIsposta differita‏‎ (14:47, 17 August 2015)
  283. RIsposta riflessa‏‎ (14:47, 17 August 2015)
  284. Ruoli‏‎ (14:47, 17 August 2015)
  285. Ruoli, errori nei‏‎ (14:48, 17 August 2015)
  286. Ruoli, funzione dei‏‎ (14:48, 17 August 2015)
  287. Segnica‏‎ (14:48, 17 August 2015)
  288. Segno‏‎ (14:49, 17 August 2015)
  289. Sensazione‏‎ (14:49, 17 August 2015)
  290. Sensi‏‎ (14:49, 17 August 2015)
  291. Sensi, caratteristiche comuni dei‏‎ (14:50, 17 August 2015)
  292. Sensi, classificazione dei‏‎ (14:50, 17 August 2015)
  293. Sensi, errore dei‏‎ (14:50, 17 August 2015)
  294. Sensi, funzione dei‏‎ (14:51, 17 August 2015)
  295. Sensi interni‏‎ (14:51, 17 August 2015)
  296. Significato‏‎ (14:51, 17 August 2015)
  297. Significazione‏‎ (14:52, 17 August 2015)
  298. Simbolo‏‎ (14:52, 17 August 2015)
  299. Spazio di rappresentazione‏‎ (14:54, 17 August 2015)
  300. Spazio di rappresentazione, funzioni dello‏‎ (14:55, 17 August 2015)
  301. Stati interni‏‎ (14:55, 17 August 2015)
  302. Tensioni‏‎ (14:55, 17 August 2015)
  303. Tipo umano‏‎ (14:56, 17 August 2015)
  304. Tonicità muscolare‏‎ (14:56, 17 August 2015)
  305. Tono‏‎ (14:56, 17 August 2015)
  306. Trascinamento‏‎ (14:57, 17 August 2015)
  307. Trasferenza‏‎ (14:57, 17 August 2015)
  308. Trasferenza, pre-requisiti della‏‎ (14:58, 17 August 2015)
  309. Trasferenza, entrata nella‏‎ (14:58, 17 August 2015)
  310. Trasferenza, sviluppo e uscita dalla‏‎ (14:59, 17 August 2015)
  311. Trasferenza, indicatori di resistenza nella‏‎ (14:59, 17 August 2015)
  312. Trasferenza, modi di operare nella‏‎ (14:59, 17 August 2015)
  313. Trasferenza, passi successivi alla‏‎ (15:00, 17 August 2015)
  314. Trasferenza, sistema di valutazione della‏‎ (15:00, 17 August 2015)
  315. Trasferenziale, sondaggio‏‎ (15:01, 17 August 2015)
  316. Unità interna‏‎ (15:01, 17 August 2015)
  317. Nuovo ordine‏‎ (21:30, 17 August 2015)
  318. Cerimonie del Messaggio di Silo‏‎ (15:56, 20 August 2015)
  319. Interpretazioni dell'Umanesimo‏‎ (19:14, 20 August 2015)
  320. Latitude Press‏‎ (19:23, 20 August 2015)
  321. Deno, Peter‏‎ (21:51, 21 August 2015)
  322. De la Rubia, Rafael‏‎ (19:22, 1 September 2015)
  323. Montero de Burgos, José Luis‏‎ (20:48, 1 September 2015)
  324. Pressenza‏‎ (21:09, 1 September 2015)
  325. Edicril‏‎ (14:15, 6 September 2015)
  326. Galasso, Andrea‏‎ (14:37, 6 September 2015)
  327. Tracce Nascoste‏‎ (14:42, 6 September 2015)
  328. Hirsch, Tomás‏‎ (10:52, 7 September 2015)
  329. Immagine del mondo‏‎ (13:13, 11 September 2015)
  330. Io‏‎ (13:53, 11 September 2015)
  331. Privacy policy‏‎ (16:40, 24 September 2015)
  332. Prova‏‎ (19:14, 24 September 2015)
  333. Movimento Umanista‏‎ (19:58, 2 October 2015)
  334. Centro Mondiale di Studi Umanisti‏‎ (20:01, 2 October 2015)
  335. Anarchismo‏‎ (19:33, 5 October 2015)
  336. Allegoria‏‎ (19:45, 5 October 2015)
  337. Fascismo‏‎ (19:57, 5 October 2015)
  338. Esistenzialismo‏‎ (20:08, 5 October 2015)
  339. Sartre, Jean Paul‏‎ (20:13, 5 October 2015)
  340. Aguilar, Mario‏‎ (17:12, 23 October 2015)
  341. Il Giorno del Leone Alato‏‎ (21:55, 26 October 2015)
  342. Opere Complete Volume I‏‎ (22:34, 26 October 2015)
  343. Miti-Radice Universali‏‎ (21:50, 29 October 2015)
  344. Giustizia‏‎ (22:02, 13 December 2015)
  345. Sofferenza‏‎ (22:09, 13 December 2015)
  346. Contributi al Pensiero‏‎ (22:06, 14 December 2015)
  347. Coerenza‏‎ (20:54, 25 December 2015)
  348. Pompei, Jorge‏‎ (20:58, 25 December 2015)
  349. Pedagogia della Diversità‏‎ (21:38, 25 December 2015)
  350. Pedagogia dell'Intenzionalità‏‎ (21:39, 25 December 2015)
  351. Il Senso del Nonsenso‏‎ (14:34, 11 January 2016)
  352. Lo sguardo del Senso‏‎ (14:35, 11 January 2016)
  353. Giornata internazionale della Nonviolenza‏‎ (22:24, 16 January 2016)
  354. Zorrilla, Javier‏‎ (15:36, 22 January 2016)
  355. Futura, viaggio nel Nuovo Umanesimo‏‎ (10:19, 26 February 2016)
  356. Gandhismo‏‎ (10:59, 26 February 2016)
  357. Resistenza passiva‏‎ (11:04, 26 February 2016)
  358. Amministrazione‏‎ (11:15, 26 February 2016)
  359. Atteggiamento antiumanista‏‎ (11:17, 26 February 2016)
  360. Espinoza, Juan‏‎ (16:04, 1 April 2016)
  361. Wiki‏‎ (22:41, 9 May 2016)
  362. Tecniche di autoliberazione‏‎ (06:05, 25 July 2016)
  363. Esperienza‏‎ (07:25, 25 July 2016)
  364. Opere Complete Volume II‏‎ (07:45, 25 July 2016)
  365. Argomenti‏‎ (18:18, 27 July 2016)
  366. Silo, Il Maestro del Nostro Tempo‏‎ (18:46, 27 July 2016)
  367. Virtual Edicciones‏‎ (18:48, 27 July 2016)
  368. Figueroa, Pía‏‎ (18:49, 27 July 2016)
  369. Nonviolenza attiva‏‎ (18:16, 28 July 2016)
  370. Koval, Boris‏‎ (20:40, 18 August 2016)
  371. De Casas, Tito‏‎ (09:13, 25 August 2016)
  372. Nonviolenza‏‎ (15:09, 12 October 2016)
  373. Istruzioni d'uso‏‎ (08:26, 27 October 2016)
  374. Capitini, Aldo‏‎ (12:16, 23 November 2016)
  375. Corrente Pedagogica Umanista universalista‏‎ (15:26, 14 December 2016)
  376. Partito Umanista‏‎ (16:16, 29 December 2016)
  377. Il Paesaggio Umano‏‎ (08:08, 21 February 2017)
  378. Il Paesaggio Interno‏‎ (08:14, 21 February 2017)
  379. Serfaty, Clara‏‎ (09:39, 20 March 2017)
  380. Tato, Néstor‏‎ (09:44, 20 March 2017)
  381. Coscienza, livelli di‏‎ (10:25, 4 April 2017)
  382. Amnesia‏‎ (10:26, 4 April 2017)
  383. Vissuto‏‎ (10:31, 4 April 2017)
  384. Registro‏‎ (10:39, 4 April 2017)
  385. Psicologia Umanista Universalista‏‎ (10:43, 4 April 2017)
  386. Oltre il Capitalismo: Economia Mista‏‎ (10:00, 10 May 2017)
  387. Editions Références‏‎ (10:04, 25 May 2017)
  388. Forum Umanista di Mosca‏‎ (10:53, 25 May 2017)
  389. Forum Umanista di Città del Messico‏‎ (10:57, 25 May 2017)
  390. Incontro Aperto dell'Umanesimo‏‎ (11:04, 25 May 2017)
  391. La Fine della Preistoria‏‎ (10:03, 8 September 2017)
  392. Esperienze Guidate‏‎ (07:06, 9 October 2017)
  393. Ediciones León Alado‏‎ (11:34, 13 November 2017)
  394. Gandhi‏‎ (10:34, 23 November 2017)
  395. Mondo senza Guerre e senza Violenza‏‎ (10:49, 24 November 2017)
  396. Umanizzare la Terra‏‎ (11:22, 24 November 2017)
  397. Il Cammino‏‎ (21:25, 3 January 2018)
  398. Disarmo‏‎ (09:50, 29 January 2018)
  399. Movimento antimilitarista‏‎ (09:57, 29 January 2018)
  400. Gennaio, 1‏‎ (09:48, 3 February 2018)
  401. Gennaio, 2‏‎ (12:06, 3 February 2018)
  402. Gennaio, 3‏‎ (12:06, 3 February 2018)
  403. La Guarigione della Sofferenza‏‎ (13:18, 3 February 2018)
  404. Gennaio, 7‏‎ (08:06, 5 February 2018)
  405. Gennaio, 11‏‎ (08:12, 5 February 2018)
  406. Gennaio, 12‏‎ (08:13, 5 February 2018)
  407. Gennaio, 13‏‎ (08:14, 5 February 2018)
  408. Gennaio, 16‏‎ (08:18, 5 February 2018)
  409. Gennaio, 17‏‎ (08:27, 5 February 2018)
  410. Gennaio, 18‏‎ (08:36, 5 February 2018)
  411. Gennaio, 20‏‎ (08:38, 5 February 2018)
  412. Gennaio, 21‏‎ (08:42, 5 February 2018)
  413. Gennaio, 23‏‎ (09:47, 5 February 2018)
  414. Gennaio, 24‏‎ (09:48, 5 February 2018)
  415. Gennaio, 26‏‎ (10:01, 5 February 2018)
  416. Gennaio, 27‏‎ (10:02, 5 February 2018)
  417. Gennaio, 28‏‎ (10:04, 5 February 2018)
  418. Gennaio, 29‏‎ (10:21, 5 February 2018)
  419. Gennaio, 30‏‎ (10:25, 5 February 2018)
  420. Gennaio, 31‏‎ (10:26, 5 February 2018)
  421. Febbraio, 1‏‎ (14:57, 6 February 2018)
  422. Febbraio, 2‏‎ (14:58, 6 February 2018)
  423. Febbraio, 3‏‎ (15:03, 6 February 2018)
  424. Febbraio, 4‏‎ (15:05, 6 February 2018)
  425. Febbraio, 5‏‎ (15:19, 6 February 2018)
  426. Febbraio, 6‏‎ (16:07, 6 February 2018)
  427. Febbraio, 7‏‎ (16:08, 6 February 2018)
  428. Febbraio, 8‏‎ (16:09, 6 February 2018)
  429. Febbraio, 9‏‎ (16:10, 6 February 2018)
  430. Febbraio, 10‏‎ (16:51, 6 February 2018)
  431. Febbraio, 12‏‎ (17:00, 6 February 2018)
  432. Febbraio, 11‏‎ (17:13, 6 February 2018)
  433. Febbraio, 13‏‎ (17:13, 6 February 2018)
  434. Febbraio, 14‏‎ (18:08, 6 February 2018)
  435. Febbraio, 15‏‎ (18:10, 6 February 2018)
  436. Febbraio, 16‏‎ (18:12, 6 February 2018)
  437. Febbraio, 19‏‎ (18:24, 6 February 2018)
  438. Febbraio, 20‏‎ (18:26, 6 February 2018)
  439. Febbraio, 22‏‎ (18:58, 6 February 2018)
  440. Febbraio, 24‏‎ (19:34, 6 February 2018)
  441. Febbraio, 26‏‎ (19:51, 6 February 2018)
  442. Febbraio, 27‏‎ (19:53, 6 February 2018)
  443. Febbraio, 28‏‎ (19:54, 6 February 2018)
  444. Marzo, 1‏‎ (10:17, 7 February 2018)
  445. Marzo, 2‏‎ (10:20, 7 February 2018)
  446. Marzo, 3‏‎ (10:25, 7 February 2018)
  447. Marzo, 4‏‎ (10:27, 7 February 2018)
  448. Marzo, 5‏‎ (10:30, 7 February 2018)
  449. Marzo, 6‏‎ (10:32, 7 February 2018)
  450. Marzo, 7‏‎ (10:38, 7 February 2018)
  451. Marzo, 8‏‎ (10:41, 7 February 2018)
  452. Marzo, 10‏‎ (10:48, 7 February 2018)
  453. Ottobre, 21‏‎ (20:15, 7 February 2018)
  454. Marzo, 13‏‎ (20:19, 7 February 2018)
  455. Marzo, 14‏‎ (20:20, 7 February 2018)
  456. Marzo, 15‏‎ (20:24, 7 February 2018)
  457. Marzo, 16‏‎ (20:29, 7 February 2018)
  458. Marzo, 17‏‎ (20:31, 7 February 2018)
  459. Marzo, 18‏‎ (20:37, 7 February 2018)
  460. Marzo, 20‏‎ (20:55, 7 February 2018)
  461. Marzo, 22‏‎ (21:06, 7 February 2018)
  462. Marzo, 25‏‎ (21:15, 7 February 2018)
  463. Marzo, 28‏‎ (21:31, 7 February 2018)
  464. Marzo, 30‏‎ (21:36, 7 February 2018)
  465. Ergas, Dario‏‎ (08:50, 8 February 2018)
  466. Aprile, 1‏‎ (12:15, 8 February 2018)
  467. Aprile, 2‏‎ (12:16, 8 February 2018)
  468. Aprile, 3‏‎ (12:20, 8 February 2018)
  469. Aprile, 4‏‎ (12:25, 8 February 2018)
  470. Aprile, 6‏‎ (09:36, 9 February 2018)
  471. Aprile, 7‏‎ (09:37, 9 February 2018)
  472. Aprile, 9‏‎ (09:43, 9 February 2018)
  473. Aprile, 11‏‎ (09:49, 9 February 2018)
  474. Aprile, 12‏‎ (09:50, 9 February 2018)
  475. Aprile, 13‏‎ (09:51, 9 February 2018)
  476. Aprile, 15‏‎ (10:01, 9 February 2018)
  477. Aprile, 16‏‎ (10:04, 9 February 2018)
  478. Aprile, 17‏‎ (10:08, 9 February 2018)
  479. Aprile, 18‏‎ (10:09, 9 February 2018)
  480. Aprile, 19‏‎ (10:16, 9 February 2018)
  481. Aprile, 20‏‎ (10:19, 9 February 2018)
  482. Aprile, 21‏‎ (10:22, 9 February 2018)
  483. Aprile, 22‏‎ (10:25, 9 February 2018)
  484. Aprile, 24‏‎ (10:28, 9 February 2018)
  485. Aprile, 25‏‎ (10:29, 9 February 2018)
  486. Aprile, 26‏‎ (10:30, 9 February 2018)
  487. Aprile, 27‏‎ (10:31, 9 February 2018)
  488. Aprile, 28‏‎ (10:34, 9 February 2018)
  489. Aprile, 29‏‎ (10:37, 9 February 2018)
  490. Aprile, 30‏‎ (10:38, 9 February 2018)
  491. Maggio, 4‏‎ (20:43, 9 February 2018)
  492. Maggio, 6‏‎ (20:50, 9 February 2018)
  493. Maggio, 8‏‎ (20:54, 9 February 2018)
  494. Maggio, 9‏‎ (21:01, 9 February 2018)
  495. Maggio, 10‏‎ (21:14, 9 February 2018)
  496. Maggio, 11‏‎ (21:18, 9 February 2018)
  497. Maggio, 12‏‎ (21:28, 9 February 2018)
  498. Maggio, 13‏‎ (21:32, 9 February 2018)
  499. Maggio, 14‏‎ (21:43, 9 February 2018)
  500. Maggio, 16‏‎ (22:17, 9 February 2018)

View (previous 500 | next 500) (20 | 50 | 100 | 250 | 500)